Helicity
105 111 117 117 109 160 167 166 154 133 125 116 98 76 65 61 56 43 42 24 23 26 33 38 37 45 49 44 41 26 -5 1
121 110 113 121 125 153 167 156 135 127 109 83 115 63 45 55 62 61 46 45 32 36 44 52 49 41 45 52 47 27 12 -3
136 142 138 136 116 136 132 134 116 122 118 98 110 98 90 60 62 70 81 76 60 61 50 66 63 52 47 48 53 44 30 23
146 140 132 132 115 110 103 97 90 82 79 90 84 83 80 83 59 56 87 89 82 83 87 98 87 65 72 97 77 30 21 14
169 154 116 106 94 85 79 77 75 72 71 54 41 59 58 73 91 86 83 91 101 111 116 124 108 94 67 94 58 27 30 24
160 128 102 84 79 83 66 61 49 61 66 64 66 64 66 59 64 81 89 113 88 96 136 140 136 99 79 56 61 64 56 39
137 106 88 73 63 64 62 60 67 66 59 66 87 93 102 98 102 97 84 92 104 122 96 104 129 136 104 69 80 85 47 39
97 89 78 71 67 65 60 59 62 55 55 74 67 86 101 120 133 131 121 112 112 120 129 147 93 127 144 129 140 96 82 82
85 80 80 76 67 64 56 69 63 66 64 78 85 83 92 99 116 138 146 152 125 112 116 119 135 112 133 148 181 150 98 99
106 114 110 103 81 58 65 62 60 53 63 60 74 92 121 116 136 139 153 200 212 205 173 151 143 148 120 121 154 195 146 102
129 118 117 104 73 65 57 58 51 60 59 66 89 94 86 99 120 157 199 193 217 208 214 236 155 149 151 135 119 150 181 178
130 117 110 103 91 79 63 54 54 65 76 83 96 78 109 151 106 120 147 165 199 218 208 218 215 162 147 151 131 129 142 200
121 110 103 93 85 66 64 58 62 60 66 77 109 121 111 103 119 135 133 163 194 258 322 335 208 159 133 139 146 107 149 141
99 104 101 77 52 32 29 36 29 33 56 73 81 110 97 114 137 124 157 146 178 190 220 249 293 221 217 179 210 154 140 140
111 110 88 61 50 26 33 17 37 56 72 85 109 128 132 126 130 116 114 143 158 171 160 177 191 266 261 192 232 253 220 141
115 78 62 44 28 11 15 2 16 26 39 57 91 145 147 161 146 145 116 104 109 116 128 159 180 175 208 243 206 244 256 188
90 63 57 50 22 16 2 15 -9 -9 17 63 106 140 170 160 149 162 134 132 115 114 112 100 133 167 182 206 217 244 171 250
80 72 64 64 48 29 3 6 4 16 42 50 71 97 131 148 156 141 131 107 90 79 93 100 77 94 123 140 189 245 270 197
85 87 93 74 47 23 9 -13 14 37 66 88 97 80 98 147 138 118 111 102 85 83 88 91 103 102 95 118 114 143 184 171
109 113 93 71 46 25 11 1 -35 -28 7 7 38 61 34 47 105 144 106 110 110 117 100 91 76 71 76 107 101 91 89 133
Wind_Speed
42 45 48 50 50 55 55 57 57 56 53 52 54 54 48 38 35 29 22 23 25 26 29 28 26 21 19 14 10 5 1 3
44 47 51 53 54 57 57 57 56 56 56 55 58 54 42 44 43 37 32 27 25 31 37 37 34 29 24 19 14 13 10 6
48 52 54 57 56 58 57 57 56 57 57 58 58 53 55 48 47 44 37 34 32 33 28 38 43 41 37 30 25 20 13 11
50 53 57 59 58 59 57 57 56 56 56 59 60 61 60 64 57 53 46 38 36 38 35 33 34 47 39 26 29 26 20 20
53 56 58 60 61 60 58 59 59 59 59 62 59 60 57 59 60 57 52 47 43 40 44 44 39 36 36 33 27 27 29 25
54 56 58 60 62 59 62 62 63 62 67 66 66 64 63 59 57 58 57 54 53 48 44 47 45 42 42 44 41 35 32 33
54 56 58 62 63 63 64 64 63 67 65 65 66 69 67 66 63 60 58 59 57 60 52 43 43 45 49 42 45 45 48 51
54 56 59 63 65 65 65 63 65 66 66 66 69 69 70 70 68 67 65 62 62 63 65 68 52 45 46 51 55 48 50 50
56 58 61 65 68 69 67 67 69 70 69 70 72 71 72 73 72 70 70 69 70 67 67 72 73 58 51 51 54 58 53 47
58 61 64 68 71 70 68 68 70 70 72 74 75 75 76 79 78 77 77 80 77 73 73 69 73 71 61 54 54 57 59 51
61 63 67 72 71 70 70 69 69 71 74 74 76 80 79 80 80 82 83 84 82 79 76 76 72 78 77 69 58 56 61 60
62 65 69 72 69 70 69 70 71 73 75 77 81 80 80 82 80 79 80 81 83 80 85 77 79 75 77 82 71 60 60 63
62 67 70 71 72 75 75 77 78 78 77 78 82 83 85 83 79 79 81 85 82 84 87 89 81 75 77 84 84 72 67 67
61 65 67 68 71 72 74 78 77 78 77 82 81 83 84 82 83 85 84 86 82 81 83 86 86 76 78 76 86 80 76 72
58 61 63 65 70 70 74 74 76 78 83 83 84 85 82 83 82 81 82 82 82 80 78 79 87 83 79 71 77 88 71 57
53 56 59 63 67 71 76 78 82 82 82 83 84 81 80 80 79 79 80 78 81 79 78 76 78 85 80 81 80 77 70 82
48 52 56 62 67 70 73 76 77 80 81 84 81 79 79 79 78 79 76 74 73 73 74 73 75 81 85 82 86 79 83 82
47 52 56 60 64 67 70 74 75 78 81 80 80 78 76 76 80 77 77 76 76 78 80 81 77 76 79 84 86 85 78 81
48 52 55 58 61 64 68 70 71 74 78 79 80 78 78 79 79 78 75 74 74 73 71 76 75 75 78 77 79 87 85 80
47 51 53 55 58 60 63 67 68 71 75 76 76 77 77 77 75 75 72 70 69 66 64 68 70 72 71 72 76 81 82 83
Wind_Direction
338 336 336 337 341 339 338 336 334 331 329 325 318 310 311 316 315 315 312 313 314 315 315 317 321 325 327 331 334 338 355 359
335 333 333 332 334 335 334 334 332 330 327 326 316 317 318 312 308 308 306 303 303 305 304 305 308 311 314 315 316 317 312 306
331 329 329 330 331 331 331 331 330 329 329 327 324 323 315 317 313 308 304 300 297 296 297 300 300 301 302 305 308 309 305 306
331 329 326 325 327 327 329 328 329 330 330 326 322 317 315 309 309 306 304 298 293 292 290 292 296 295 298 291 297 300 301 303
326 327 327 326 325 325 326 325 326 326 326 326 327 325 323 317 312 311 309 304 297 289 287 286 285 288 291 292 296 293 297 299
323 324 324 324 323 324 321 320 320 320 318 320 320 322 322 322 319 313 309 307 302 297 290 286 283 281 283 288 289 292 294 295
322 324 325 325 324 325 323 322 322 321 322 322 323 321 320 319 317 315 311 305 301 299 294 285 279 277 278 278 282 286 287 289
324 326 327 327 327 327 326 326 324 323 323 322 322 322 320 318 316 312 309 306 301 296 293 292 286 276 274 275 281 281 281 282
324 326 327 326 325 324 324 323 322 321 320 320 320 321 320 318 315 312 308 305 301 296 292 287 287 282 273 270 273 276 279 278
324 325 325 325 324 324 323 323 321 320 318 317 318 318 318 316 313 310 308 303 300 297 293 289 282 285 277 272 266 269 273 271
321 324 324 324 324 324 323 323 322 321 320 319 318 317 316 314 311 308 306 302 298 295 292 288 286 279 281 278 271 264 267 271
321 322 324 325 326 325 325 324 323 322 320 319 318 317 316 315 312 309 306 302 297 294 290 288 285 284 278 277 277 267 264 264
322 322 324 325 325 324 323 321 321 320 320 320 318 317 315 315 313 310 305 299 298 294 292 288 284 282 280 276 272 273 264 260
323 325 327 328 327 326 325 322 322 321 322 320 320 319 317 315 312 308 305 302 300 295 290 287 287 283 279 280 272 272 267 260
326 328 330 331 331 329 328 327 325 324 322 321 320 318 319 317 314 311 307 302 299 297 292 286 281 283 278 275 273 268 272 269
330 332 334 336 336 334 332 329 326 325 324 323 322 322 322 322 319 315 311 306 300 295 290 289 284 278 280 273 274 273 275 271
335 337 338 339 339 338 336 334 332 330 328 326 327 326 325 324 322 319 316 312 307 301 295 288 283 281 275 276 271 273 266 269
335 336 338 339 341 342 341 339 338 336 335 334 333 331 330 329 325 321 314 311 305 298 291 287 284 280 277 274 272 269 268 265
333 334 337 342 343 346 347 348 348 347 344 342 340 338 333 329 327 322 319 314 307 306 303 294 289 283 279 276 273 270 268 268
334 336 338 343 348 350 351 352 353 354 352 351 348 343 340 336 330 329 328 318 315 317 313 305 299 291 284 274 274 270 268 266